Weather past 2 weeks in Jamestown, Saint Helena

Now
60 °F

Cool.


Feels Like: 60 °F
Forecast: N/A
Wind: 13 mph from Southeast

Location: Saint Helena Island

Current Time: Jul 2, 2015 at 5:08:50 PM

Latest Report: Jul 2, 2015 at 4:00 PM


Visibility: N/A

Pressure: 30.12 "Hg

Humidity: 98%

Dew point: 60 °F

Location of JamestownLocation

Historic Weather in Jamestown — Graph

°F

Jamestown temperature yesterday

Maximum temperature yesterday: 63 °F (at 11:00 AM)
Minimum temperature yesterday: 60 °F (at 9:00 AM)
Average temperature yesterday: 61 °F

Past Weeks' High & Low Weather Summary

 TemperatureHumidityPressure
High70 °F (Jun 23, 1:00 PM)99% (Jun 17, 9:00 PM)30.34 "Hg (Jun 17, 9:00 PM)
Low57 °F (Jun 28, 5:00 AM)50% (Jun 23, 12:00 PM)30.06 "Hg (Jun 18, 3:00 PM)
Average62 °F85%30.18 "Hg
* Reported Jun 17 3:00 PM — Jul 2 3:00 PM, Jamestown, Weather by CustomWeather, © 2015

Note: Actual official high and low records may vary slightly from our data, if they occured in-between our weather recording intervals... More about our weather records

Advertising

Jamestown weather history for previous 24 hours

 ConditionsComfort  
Time TempWeatherWind HumidityBarometerVisibility
3:00 PM
Thu, Jul 2
60 °FSprinkles. Low clouds.14 mph99%30.13 "Hg1 mi
2:00 PM61 °FFog.15 mph99%30.14 "Hg2 mi
1:00 PM62 °FSprinkles. Low clouds.14 mph96%30.16 "Hg2 mi
12:00 PM61 °FFog.17 mph97%30.18 "Hg1 mi
11:00 AM62 °FLow clouds.14 mph94%30.19 "Hg2 mi
10:00 AM63 °FOvercast.17 mph84%30.19 "Hg19 mi
9:00 AM63 °FOvercast.15 mph81%30.18 "Hg12 mi
8:00 AM62 °FCool.16 mph83%30.16 "HgN/A
7:00 AM61 °FCool.16 mph83%30.15 "HgN/A
5:00 AM60 °FCool.15 mph83%30.13 "HgN/A
4:00 AM60 °FCool.14 mph85%30.13 "HgN/A
3:00 AM60 °FCool.16 mph86%30.14 "HgN/A
2:00 AM61 °FCool.15 mph85%30.17 "HgN/A
1:00 AM61 °FCool.15 mph85%30.18 "HgN/A
11:00 PM
Wed, Jul 1
61 °FCool.18 mph83%30.19 "HgN/A
10:00 PM61 °FCool.18 mph78%30.19 "HgN/A
9:00 PM61 °FCool.20 mph83%30.18 "HgN/A
8:00 PM61 °FCool.16 mph85%30.17 "HgN/A
7:00 PM61 °FCool.17 mph82%30.16 "HgN/A
6:00 PM62 °FCool.21 mph80%30.14 "HgN/A
5:00 PM62 °FCool.22 mph87%30.13 "HgN/A
Weather by CustomWeather, © 2015

See weather overviewHow to use our weather pages